Time,TemperatureF,DewpointF,PressureIn,WindDirection,WindDirectionDegrees,WindSpeedMPH,WindSpeedGustMPH,Humidity,HourlyPrecipIn,Conditions,Clouds,dailyrainin,SoftwareType,DateUTC
2013-06-14 00:00:00,75.9,58.6,29.83,NW,315,6.0,8.0,55,0.00,CLR,SKC,0.01,WeatherDisplay:10.37,2013-06-14 04:00:00,
2013-06-14 00:15:00,76.3,57.9,29.84,WSW,248,5.0,7.0,53,0.00,CLR,SKC,0.01,WeatherDisplay:10.37,2013-06-14 04:15:00,
2013-06-14 00:30:00,77.7,58.7,29.84,WSW,248,13.0,17.0,52,0.00,CLR,SKC,0.01,WeatherDisplay:10.37,2013-06-14 04:30:00,
2013-06-14 00:45:00,77.2,57.7,29.83,West,270,8.0,17.0,51,0.00,CLR,SKC,0.01,WeatherDisplay:10.37,2013-06-14 04:45:00,
2013-06-14 01:00:00,77.9,59.4,29.84,SE,135,5.0,15.0,53,0.00,CLR,SKC,0.01,WeatherDisplay:10.37,2013-06-14 05:00:00,
2013-06-14 01:15:00,77.7,57.0,29.85,NW,315,9.0,13.0,49,0.00,CLR,SKC,0.01,WeatherDisplay:10.37,2013-06-14 05:15:00,
2013-06-14 01:30:00,77.9,58.9,29.85,NW,315,6.0,13.0,52,0.00,CLR,SKC,0.01,WeatherDisplay:10.37,2013-06-14 05:30:00,
2013-06-14 01:45:00,78.1,56.2,29.85,West,270,7.0,11.0,47,0.00,CLR,SKC,0.01,WeatherDisplay:10.37,2013-06-14 05:45:00,
2013-06-14 02:00:00,79.3,57.9,29.86,NW,315,8.0,11.0,48,0.00,CLR,SKC,0.01,WeatherDisplay:10.37,2013-06-14 06:00:00,
2013-06-14 02:15:00,78.6,57.9,29.86,SW,225,9.0,17.0,49,0.00,CLR,SKC,0.01,WeatherDisplay:10.37,2013-06-14 06:15:00,
2013-06-14 02:30:00,79.7,57.7,29.86,NW,315,10.0,17.0,47,0.00,CLR,SKC,0.01,WeatherDisplay:10.37,2013-06-14 06:30:00,
2013-06-14 02:45:00,79.9,57.8,29.86,West,270,6.0,15.0,47,0.00,CLR,SKC,0.01,WeatherDisplay:10.37,2013-06-14 06:45:00,
2013-06-14 03:00:00,79.5,58.1,29.86,NW,315,8.0,10.0,48,0.00,CLR,SKC,0.01,WeatherDisplay:10.37,2013-06-14 07:00:00,
2013-06-14 03:15:00,79.5,57.5,29.86,NW,315,6.0,10.0,47,0.00,CLR,SKC,0.01,WeatherDisplay:10.37,2013-06-14 07:15:00,
2013-06-14 03:30:00,79.3,57.4,29.86,NW,315,8.0,13.0,47,0.00,CLR,SKC,0.01,WeatherDisplay:10.37,2013-06-14 07:30:00,
2013-06-14 03:45:00,79.9,56.6,29.86,SE,135,6.0,13.0,45,0.00,CLR,SKC,0.01,WeatherDisplay:10.37,2013-06-14 07:45:00,
2013-06-14 04:00:00,79.2,55.4,29.87,SW,225,6.0,11.0,44,0.00,CLR,SKC,0.01,WeatherDisplay:10.37,2013-06-14 08:00:00,
2013-06-14 04:15:00,80.2,56.3,29.87,South,180,6.0,9.0,44,0.00,CLR,SKC,0.01,WeatherDisplay:10.37,2013-06-14 08:15:00,
2013-06-14 04:30:00,81.0,56.4,29.87,NW,315,9.0,11.0,43,0.00,CLR,SKC,0.01,WeatherDisplay:10.37,2013-06-14 08:30:00,
2013-06-14 04:45:00,81.0,57.6,29.87,SW,225,8.0,14.0,45,0.00,CLR,SKC,0.01,WeatherDisplay:10.37,2013-06-14 08:45:00,
2013-06-14 05:00:00,80.8,55.5,29.88,East,90,3.0,14.0,42,0.00,CLR,SKC,0.01,WeatherDisplay:10.37,2013-06-14 09:00:00,
2013-06-14 05:15:00,81.3,57.3,29.88,SW,225,3.0,7.0,44,0.00,CLR,SKC,0.01,WeatherDisplay:10.37,2013-06-14 09:15:00,
2013-06-14 05:30:00,79.5,56.3,29.89,West,270,5.0,8.0,45,0.00,CLR,SKC,0.01,WeatherDisplay:10.37,2013-06-14 09:30:00,
2013-06-14 05:45:00,80.6,56.0,29.89,NW,315,5.0,8.0,43,0.00,CLR,SKC,0.01,WeatherDisplay:10.37,2013-06-14 09:45:00,
2013-06-14 06:00:00,77.9,56.0,29.89,West,270,6.0,9.0,47,0.00,CLR,SKC,0.01,WeatherDisplay:10.37,2013-06-14 10:00:00,
2013-06-14 06:15:00,78.8,56.3,29.90,NW,315,6.0,9.0,46,0.00,CLR,SKC,0.01,WeatherDisplay:10.37,2013-06-14 10:15:00,
2013-06-14 06:30:00,80.4,56.5,29.90,NW,315,6.0,11.0,44,0.00,CLR,SKC,0.01,WeatherDisplay:10.37,2013-06-14 10:30:00,
2013-06-14 06:45:00,78.6,57.3,29.90,West,270,8.0,11.0,48,0.00,CLR,SKC,0.01,WeatherDisplay:10.37,2013-06-14 10:45:00,
2013-06-14 07:00:00,80.1,56.8,29.90,SW,225,1.0,10.0,45,0.00,CLR,SKC,0.01,WeatherDisplay:10.37,2013-06-14 11:00:00,
2013-06-14 07:15:00,78.3,55.8,29.91,NW,315,3.0,5.0,46,0.00,CLR,SKC,0.01,WeatherDisplay:10.37,2013-06-14 11:15:00,
2013-06-14 07:30:00,79.0,56.4,29.90,West,270,2.0,5.0,46,0.00,CLR,SKC,0.01,WeatherDisplay:10.37,2013-06-14 11:30:00,
2013-06-14 07:45:00,81.7,57.0,29.90,NW,315,3.0,5.0,43,0.00,CLR,SKC,0.01,WeatherDisplay:10.37,2013-06-14 11:45:00,
2013-06-14 08:00:00,82.4,57.0,29.90,NW,315,2.0,5.0,42,0.00,CLR,SKC,0.01,WeatherDisplay:10.37,2013-06-14 12:00:00,
2013-06-14 08:15:00,83.3,57.8,29.91,West,270,2.0,5.0,42,0.00,CLR,SKC,0.01,WeatherDisplay:10.37,2013-06-14 12:15:00,
2013-06-14 08:30:00,82.0,56.0,29.91,NW,315,3.0,5.0,41,0.00,CLR,SKC,0.01,WeatherDisplay:10.37,2013-06-14 12:30:00,
2013-06-14 08:45:00,81.9,55.9,29.91,SW,225,2.0,4.0,41,0.00,CLR,SKC,0.01,WeatherDisplay:10.37,2013-06-14 12:45:00,
2013-06-14 09:00:00,82.9,58.1,29.92,NW,315,3.0,4.0,43,0.00,CLR,SKC,0.01,WeatherDisplay:10.37,2013-06-14 13:00:00,
2013-06-14 09:15:00,83.1,59.6,29.92,SE,135,1.0,4.0,45,0.00,CLR,SKC,0.01,WeatherDisplay:10.37,2013-06-14 13:15:00,
2013-06-14 09:30:00,81.9,58.4,29.93,SE,135,0.0,2.0,45,0.00,CLR,SKC,0.01,WeatherDisplay:10.37,2013-06-14 13:30:00,
2013-06-14 09:45:00,78.3,58.1,29.93,SE,135,1.0,2.0,50,0.00,CLR,SKC,0.01,WeatherDisplay:10.37,2013-06-14 13:45:00,
2013-06-14 10:00:00,73.8,59.0,29.93,East,90,1.0,2.0,60,0.00,CLR,SKC,0.01,WeatherDisplay:10.37,2013-06-14 14:00:00,
2013-06-14 10:15:00,71.1,58.3,29.94,West,270,0.0,2.0,64,0.00,CLR,SKC,0.01,WeatherDisplay:10.37,2013-06-14 14:15:00,
2013-06-14 10:30:00,69.4,58.0,29.95,SE,135,0.0,0.0,67,0.00,CLR,SKC,0.01,WeatherDisplay:10.37,2013-06-14 14:30:00,
2013-06-14 10:45:00,68.2,58.4,29.95,SE,135,0.0,0.0,71,0.00,CLR,SKC,0.01,WeatherDisplay:10.37,2013-06-14 14:45:00,
2013-06-14 11:00:00,66.9,59.1,29.96,SE,135,0.0,0.0,76,0.00,CLR,SKC,0.01,WeatherDisplay:10.37,2013-06-14 15:00:00,
2013-06-14 11:15:00,66.2,58.8,29.96,SE,135,0.0,0.0,77,0.00,CLR,SKC,0.01,WeatherDisplay:10.37,2013-06-14 15:15:00,
2013-06-14 11:30:00,65.1,58.8,29.97,SE,135,0.0,0.0,80,0.00,CLR,SKC,0.01,WeatherDisplay:10.37,2013-06-14 15:30:00,
2013-06-14 11:45:00,64.6,59.3,29.97,SE,135,0.0,0.0,83,0.00,CLR,SKC,0.01,WeatherDisplay:10.37,2013-06-14 15:45:00,
2013-06-14 12:00:00,63.7,58.4,29.97,SE,135,0.0,0.0,83,0.00,CLR,SKC,0.01,WeatherDisplay:10.37,2013-06-14 16:00:00,
2013-06-14 12:15:00,63.7,59.1,29.98,SE,135,0.0,0.0,85,0.00,CLR,SKC,0.01,WeatherDisplay:10.37,2013-06-14 16:15:00,
2013-06-14 12:30:00,63.1,59.2,29.99,SE,135,0.0,0.0,87,0.00,CLR,SKC,0.01,WeatherDisplay:10.37,2013-06-14 16:30:00,
2013-06-14 12:45:00,62.6,58.7,29.99,SE,135,0.0,0.0,87,0.00,CLR,SKC,0.01,WeatherDisplay:10.37,2013-06-14 16:45:00,
2013-06-14 13:00:00,62.6,59.0,29.99,SE,135,0.0,0.0,88,0.00,CLR,SKC,0.01,WeatherDisplay:10.37,2013-06-14 17:00:00,
2013-06-14 13:15:00,62.4,59.8,29.99,SE,135,0.0,0.0,91,0.00,CLR,SKC,0.01,WeatherDisplay:10.37,2013-06-14 17:15:00,
2013-06-14 13:30:00,61.9,59.2,29.99,SE,135,0.0,0.0,91,0.00,CLR,SKC,0.01,WeatherDisplay:10.37,2013-06-14 17:30:00,
2013-06-14 13:45:00,61.5,59.2,30.00,SE,135,0.0,0.0,92,0.00,CLR,SKC,0.01,WeatherDisplay:10.37,2013-06-14 17:45:00,
2013-06-14 14:00:00,61.2,58.8,29.99,SE,135,0.0,0.0,92,0.00,CLR,SKC,0.01,WeatherDisplay:10.37,2013-06-14 18:00:00,
2013-06-14 14:15:00,61.0,58.9,30.00,SE,135,0.0,0.0,93,0.00,CLR,SKC,0.00,WeatherDisplay:10.37,2013-06-14 18:15:00,
2013-06-14 14:30:00,60.8,58.8,30.01,SE,135,0.0,0.0,93,0.00,CLR,SKC,0.00,WeatherDisplay:10.37,2013-06-14 18:30:00,
2013-06-14 14:45:00,60.8,58.8,30.01,SE,135,0.0,0.0,93,0.00,CLR,SKC,0.00,WeatherDisplay:10.37,2013-06-14 18:45:00,
2013-06-14 15:00:00,61.0,59.2,30.01,NW,315,0.0,0.0,94,0.00,CLR,SKC,0.00,WeatherDisplay:10.37,2013-06-14 19:00:00,
2013-06-14 15:15:00,60.6,59.2,30.02,NW,315,0.0,0.0,95,0.00,CLR,SKC,0.00,WeatherDisplay:10.37,2013-06-14 19:15:00,
2013-06-14 15:30:00,60.3,58.8,30.02,East,90,0.0,0.0,95,0.00,CLR,SKC,0.00,WeatherDisplay:10.37,2013-06-14 19:30:00,
2013-06-14 15:45:00,60.1,58.9,30.02,East,90,0.0,0.0,96,0.00,CLR,SKC,0.00,WeatherDisplay:10.37,2013-06-14 19:45:00,
2013-06-14 16:00:00,59.7,58.6,30.02,East,90,0.0,0.0,96,0.00,CLR,SKC,0.00,WeatherDisplay:10.37,2013-06-14 20:00:00,
2013-06-14 16:15:00,59.5,58.4,30.02,East,90,0.0,0.0,96,0.00,CLR,SKC,0.00,WeatherDisplay:10.37,2013-06-14 20:15:00,
2013-06-14 16:30:00,59.4,58.2,30.03,East,90,0.0,0.0,96,0.00,CLR,SKC,0.00,WeatherDisplay:10.37,2013-06-14 20:30:00,
2013-06-14 16:45:00,59.5,58.4,30.02,North,0,0.0,0.0,96,0.00,CLR,SKC,0.00,WeatherDisplay:10.37,2013-06-14 20:45:00,
2013-06-14 17:00:00,59.0,57.9,30.03,North,0,0.0,0.0,96,0.00,CLR,SKC,0.00,WeatherDisplay:10.37,2013-06-14 21:00:00,
2013-06-14 17:15:00,59.0,58.2,30.03,SE,135,0.0,0.0,97,0.00,CLR,SKC,0.00,WeatherDisplay:10.37,2013-06-14 21:15:00,
2013-06-14 17:30:00,58.6,58.1,30.03,SE,135,0.0,0.0,98,0.00,CLR,SKC,0.00,WeatherDisplay:10.37,2013-06-14 21:30:00,
2013-06-14 17:45:00,58.3,57.7,30.03,SE,135,0.0,0.0,98,0.00,CLR,SKC,0.00,WeatherDisplay:10.37,2013-06-14 21:45:00,
2013-06-14 18:00:00,58.6,58.1,30.02,West,270,0.0,0.0,98,0.00,CLR,SKC,0.00,WeatherDisplay:10.37,2013-06-14 22:00:00,
2013-06-14 18:15:00,58.5,57.9,30.01,West,270,0.0,0.0,98,0.00,CLR,SKC,0.00,WeatherDisplay:10.37,2013-06-14 22:15:00,
2013-06-14 18:30:00,58.1,57.5,30.02,West,270,0.0,0.0,98,0.00,CLR,SKC,0.00,WeatherDisplay:10.37,2013-06-14 22:30:00,
2013-06-14 18:45:00,58.1,57.5,30.02,West,270,0.0,0.0,98,0.00,CLR,SKC,0.00,WeatherDisplay:10.37,2013-06-14 22:45:00,
2013-06-14 19:00:00,57.6,57.0,30.02,West,270,0.0,0.0,98,0.00,CLR,SKC,0.00,WeatherDisplay:10.37,2013-06-14 23:00:00,
2013-06-14 19:15:00,57.7,57.2,30.02,West,270,0.0,0.0,98,0.00,CLR,SKC,0.00,WeatherDisplay:10.37,2013-06-14 23:15:00,
2013-06-14 19:30:00,57.7,57.2,30.03,West,270,0.0,0.0,98,0.00,CLR,SKC,0.00,WeatherDisplay:10.37,2013-06-14 23:30:00,
2013-06-14 19:45:00,57.6,57.0,30.04,West,270,0.0,0.0,98,0.00,CLR,SKC,0.00,WeatherDisplay:10.37,2013-06-14 23:45:00,
2013-06-14 20:00:00,58.1,57.8,30.05,West,270,0.0,0.0,99,0.00,CLR,SKC,0.00,WeatherDisplay:10.37,2013-06-15 00:00:00,
2013-06-14 20:15:00,58.1,57.8,30.06,SE,135,0.0,0.0,99,0.00,CLR,SKC,0.00,WeatherDisplay:10.37,2013-06-15 00:15:00,
2013-06-14 20:30:00,59.2,58.6,30.07,SE,135,0.0,0.0,98,0.00,CLR,SKC,0.00,WeatherDisplay:10.37,2013-06-15 00:30:00,
2013-06-14 20:45:00,60.6,60.3,30.06,West,270,0.0,0.0,99,0.00,CLR,SKC,0.00,WeatherDisplay:10.37,2013-06-15 00:45:00,
2013-06-14 21:00:00,62.2,61.7,30.07,West,270,1.0,2.0,98,0.00,CLR,SKC,0.00,WeatherDisplay:10.37,2013-06-15 01:00:00,
2013-06-14 21:15:00,64.6,62.8,30.08,SE,135,0.0,2.0,94,0.00,CLR,SKC,0.00,WeatherDisplay:10.37,2013-06-15 01:15:00,
2013-06-14 21:30:00,66.9,62.3,30.09,SW,225,1.0,2.0,85,0.00,CLR,SKC,0.00,WeatherDisplay:10.37,2013-06-15 01:30:00,
2013-06-14 21:45:00,68.4,61.2,30.09,East,90,0.0,2.0,78,0.00,CLR,SKC,0.00,WeatherDisplay:10.37,2013-06-15 01:45:00,
2013-06-14 22:00:00,69.8,61.1,30.09,NNE,22,0.0,1.0,74,0.00,CLR,SKC,0.00,WeatherDisplay:10.37,2013-06-15 02:00:00,
2013-06-14 22:15:00,70.7,61.6,30.08,North,0,1.0,4.0,73,0.00,CLR,SKC,0.00,WeatherDisplay:10.37,2013-06-15 02:15:00,
2013-06-14 22:30:00,71.8,61.9,30.09,East,90,1.0,4.0,71,0.00,CLR,SKC,0.00,WeatherDisplay:10.37,2013-06-15 02:30:00,
2013-06-14 22:45:00,75.0,63.3,30.09,SE,135,1.0,2.0,67,0.00,CLR,SKC,0.00,WeatherDisplay:10.37,2013-06-15 02:45:00,
2013-06-14 23:00:00,76.5,63.4,30.10,SW,225,1.0,2.0,64,0.00,CLR,SKC,0.00,WeatherDisplay:10.37,2013-06-15 03:00:00,
2013-06-14 23:15:00,77.2,63.2,30.10,East,90,1.0,2.0,62,0.00,CLR,SKC,0.00,WeatherDisplay:10.37,2013-06-15 03:15:00,
2013-06-14 23:30:00,77.9,62.4,30.10,NW,315,1.0,2.0,59,0.00,CLR,SKC,0.00,WeatherDisplay:10.37,2013-06-15 03:30:00,
2013-06-14 23:45:00,79.3,62.8,30.10,West,270,1.0,2.0,57,0.00,CLR,SKC,0.00,WeatherDisplay:10.37,2013-06-15 03:45:00,